Tracking 31027 objects as of 19-Jul-2025
HD Live streaming from Space Station
objects crossing your sky now

STARLINK-1146

Track STARLINK-1146 now!
10-day predictions
STARLINK-1146 is classified as:


NORAD ID: 45094
Int'l Code: 2020-006BC
Perigee: 367.0 km
Apogee: 379.1 km
Inclination: 53.1 °
Period: 91.9 minutes
Semi major axis: 6744 km
RCS: Unknown
Launch date: January 29, 2020
Source: United States (US)
Launch site: AIR FORCE EASTERN TEST RANGE (AFETR)
Your satellite tracking list
MOLNIYA 1-86
Track 1 satellite(s)




NASA's NSSDC Master Catalog

Two Line Element Set (TLE):
1 45094U 20006BC  25199.58335648  .00149489  00000-0  13268-2 0  9995
2 45094  53.0537 199.4892 0008956   8.8662  89.0032 15.67549586  6001
Source of the keplerian elements: AFSPC